| time (UTC) | temp F | wind direction | speed MPH | gust MPH | rain 1hr in | rain 24hr in | rain mn in | humidity % | barometer mb |
| 20260510214143 | 100 | 88 | 1.0 | 1.0 | 0.00 | 0.00 | 0.00 | 13 | 1015.0 |
| 20260510213640 | 100 | 352 | 3.0 | 6.0 | 0.00 | 0.00 | 0.00 | 13 | 1014.7 |
| 20260510213137 | 100 | 300 | 5.0 | 8.0 | 0.00 | 0.00 | 0.00 | 13 | 1014.7 |
| 20260510212633 | 100 | 282 | 4.0 | 6.0 | 0.00 | 0.00 | 0.00 | 13 | 1014.7 |
| 20260510212130 | 100 | 45 | 4.0 | 6.0 | 0.00 | 0.00 | 0.00 | 13 | 1014.7 |
| 20260510211627 | 100 | 309 | 5.0 | 6.0 | 0.00 | 0.00 | 0.00 | 13 | 1015.0 |
| 20260510211121 | 100 | 19 | 1.0 | 1.0 | 0.00 | 0.00 | 0.00 | 13 | 1014.7 |
| 20260510210618 | 100 | 322 | 5.0 | 8.0 | 0.00 | 0.00 | 0.00 | 13 | 1015.0 |
| 20260510210114 | 100 | 64 | 2.0 | 3.0 | 0.00 | 0.00 | 0.00 | 13 | 1015.4 |
| 20260510205612 | 100 | 78 | 2.0 | 3.0 | 0.00 | 0.00 | 0.00 | 13 | 1015.0 |
| 20260510205108 | 100 | 79 | 3.0 | 3.0 | 0.00 | 0.00 | 0.00 | 13 | 1015.0 |
| 20260510204605 | 99 | 79 | 1.0 | 2.0 | 0.00 | 0.00 | 0.00 | 14 | 1015.4 |
| 20260510204102 | 99 | 352 | 3.0 | 5.0 | 0.00 | 0.00 | 0.00 | 14 | 1015.4 |
| 20260510203559 | 100 | 75 | 3.0 | 3.0 | 0.00 | 0.00 | 0.00 | 13 | 1015.0 |
| 20260510203056 | 99 | 57 | 3.0 | 3.0 | 0.00 | 0.00 | 0.00 | 13 | 1015.4 |
| 20260510202555 | 98 | 286 | 3.0 | 3.0 | 0.00 | 0.00 | 0.00 | 13 | 1015.8 |
| 20260510202051 | 98 | 20 | 7.0 | 9.0 | 0.00 | 0.00 | 0.00 | 13 | 1015.4 |
| 20260510201548 | 99 | 284 | 6.0 | 8.0 | 0.00 | 0.00 | 0.00 | 13 | 1015.8 |
| 20260510201045 | 99 | 60 | 3.0 | 6.0 | 0.00 | 0.00 | 0.00 | 13 | 1015.8 |
| 20260510200541 | 98 | 355 | 3.0 | 3.0 | 0.00 | 0.00 | 0.00 | 13 | 1015.8 |
| 20260510200039 | 98 | 21 | 3.0 | 5.0 | 0.00 | 0.00 | 0.00 | 14 | 1015.8 |
| 20260510195536 | 99 | 3 | 4.0 | 6.0 | 0.00 | 0.00 | 0.00 | 14 | 1016.1 |
| 20260510195032 | 99 | 48 | 3.0 | 3.0 | 0.00 | 0.00 | 0.00 | 13 | 1015.8 |
| 20260510194527 | 98 | 48 | 1.0 | 2.0 | 0.00 | 0.00 | 0.00 | 14 | 1015.8 |
| 20260510194024 | 98 | 285 | 6.0 | 8.0 | 0.00 | 0.00 | 0.00 | 14 | 1015.8 |
| 20260510193518 | 98 | 344 | 1.0 | 1.0 | 0.00 | 0.00 | 0.00 | 14 | 1016.1 |
| 20260510193014 | 97 | 352 | 3.0 | 5.0 | 0.00 | 0.00 | 0.00 | 14 | 1015.8 |
| 20260510192504 | 97 | 312 | 2.0 | 2.0 | 0.00 | 0.00 | 0.00 | 14 | 1015.8 |
| 20260510192000 | 97 | 274 | 4.0 | 5.0 | 0.00 | 0.00 | 0.00 | 14 | 1016.1 |
| 20260510191456 | 98 | 29 | 1.0 | 2.0 | 0.00 | 0.00 | 0.00 | 14 | 1016.1 |
| 20260510190954 | 98 | 62 | 2.0 | 2.0 | 0.00 | 0.00 | 0.00 | 15 | 1016.1 |
| 20260510190451 | 97 | 52 | 4.0 | 5.0 | 0.00 | 0.00 | 0.00 | 14 | 1016.1 |
| 20260510185947 | 97 | 242 | 3.0 | 5.0 | 0.00 | 0.00 | 0.00 | 15 | 1016.1 |
| 20260510185445 | 97 | 302 | 5.0 | 7.0 | 0.00 | 0.00 | 0.00 | 14 | 1016.1 |
| 20260510184942 | 97 | 5 | 4.0 | 5.0 | 0.00 | 0.00 | 0.00 | 15 | 1016.5 |
| 20260510184439 | 96 | 69 | 2.0 | 2.0 | 0.00 | 0.00 | 0.00 | 15 | 1016.5 |
| 20260510183939 | 96 | 69 | 2.0 | 3.0 | 0.00 | 0.00 | 0.00 | 15 | 1016.5 |
| 20260510183435 | 96 | 4 | 0.0 | 0.0 | 0.00 | 0.00 | 0.00 | 15 | 1016.5 |
| 20260510182930 | 96 | 22 | 4.0 | 8.0 | 0.00 | 0.00 | 0.00 | 15 | 1016.5 |
| 20260510182427 | 95 | 178 | 2.0 | 2.0 | 0.00 | 0.00 | 0.00 | 16 | 1016.5 |
| 20260510181922 | 95 | 163 | 1.0 | 2.0 | 0.00 | 0.00 | 0.00 | 16 | 1016.5 |
| 20260510181421 | 95 | 144 | 2.0 | 2.0 | 0.00 | 0.00 | 0.00 | 15 | 1016.5 |
| 20260510180916 | 94 | 120 | 0.0 | 1.0 | 0.00 | 0.00 | 0.00 | 16 | 1016.5 |
| 20260510180414 | 94 | 199 | 4.0 | 5.0 | 0.00 | 0.00 | 0.00 | 16 | 1016.8 |
| 20260510175910 | 94 | 158 | 3.0 | 5.0 | 0.00 | 0.00 | 0.00 | 16 | 1016.5 |
| 20260510175406 | 94 | 129 | 2.0 | 2.0 | 0.00 | 0.00 | 0.00 | 16 | 1016.5 |
| 20260510174902 | 93 | 285 | 1.0 | 2.0 | 0.00 | 0.00 | 0.00 | 17 | 1016.8 |
| 20260510174401 | 94 | 208 | 3.0 | 5.0 | 0.00 | 0.00 | 0.00 | 17 | 1016.8 |
| 20260510173856 | 93 | 193 | 1.0 | 1.0 | 0.00 | 0.00 | 0.00 | 17 | 1016.8 |
| 20260510173352 | 93 | 195 | 2.0 | 2.0 | 0.00 | 0.00 | 0.00 | 17 | 1016.8 |
| 20260510172849 | 94 | 167 | 2.0 | 2.0 | 0.00 | 0.00 | 0.00 | 18 | 1016.8 |
| 20260510172345 | 93 | 164 | 1.0 | 2.0 | 0.00 | 0.00 | 0.00 | 17 | 1016.5 |
| 20260510171841 | 91 | 190 | 1.0 | 2.0 | 0.00 | 0.00 | 0.00 | 18 | 1016.5 |
| 20260510171339 | 92 | 167 | 2.0 | 2.0 | 0.00 | 0.00 | 0.00 | 18 | 1016.8 |
| 20260510170836 | 91 | 155 | 2.0 | 2.0 | 0.00 | 0.00 | 0.00 | 18 | 1016.8 |
| 20260510170332 | 91 | 185 | 1.0 | 2.0 | 0.00 | 0.00 | 0.00 | 19 | 1017.2 |
| 20260510165827 | 91 | 158 | 2.0 | 2.0 | 0.00 | 0.00 | 0.00 | 19 | 1016.8 |
| 20260510165324 | 91 | 158 | 2.0 | 2.0 | 0.00 | 0.00 | 0.00 | 19 | 1016.8 |
| 20260510164821 | 91 | 129 | 1.0 | 1.0 | 0.00 | 0.00 | 0.00 | 19 | 1016.8 |
| 20260510164319 | 89 | 129 | 1.0 | 1.0 | 0.00 | 0.00 | 0.00 | 19 | 1016.5 |
| 20260510163818 | 89 | 130 | 3.0 | 3.0 | 0.00 | 0.00 | 0.00 | 19 | 1016.5 |
| 20260510163315 | 89 | 132 | 1.0 | 1.0 | 0.00 | 0.00 | 0.00 | 19 | 1016.8 |
| 20260510162814 | 90 | 132 | 2.0 | 3.0 | 0.00 | 0.00 | 0.00 | 19 | 1016.8 |
| 20260510162312 | 90 | 131 | 1.0 | 1.0 | 0.00 | 0.00 | 0.00 | 19 | 1016.5 |
| 20260510161807 | 89 | 130 | 2.0 | 2.0 | 0.00 | 0.00 | 0.00 | 19 | 1016.8 |
| 20260510161303 | 88 | 146 | 0.0 | 1.0 | 0.00 | 0.00 | 0.00 | 20 | 1016.5 |
| 20260510160800 | 87 | 148 | 2.0 | 3.0 | 0.00 | 0.00 | 0.00 | 20 | 1016.8 |
| 20260510160256 | 87 | 145 | 1.0 | 1.0 | 0.00 | 0.00 | 0.00 | 20 | 1016.8 |
| 20260510155752 | 87 | 137 | 2.0 | 2.0 | 0.00 | 0.00 | 0.00 | 20 | 1016.5 |
| 20260510155248 | 87 | 169 | 3.0 | 5.0 | 0.00 | 0.00 | 0.00 | 21 | 1016.5 |
| 20260510154744 | 87 | 141 | 1.0 | 1.0 | 0.00 | 0.00 | 0.00 | 21 | 1016.5 |
| 20260510154240 | 86 | 141 | 1.0 | 1.0 | 0.00 | 0.00 | 0.00 | 22 | 1016.5 |
| 20260510153735 | 86 | 153 | 0.0 | 0.0 | 0.00 | 0.00 | 0.00 | 22 | 1016.5 |
| 20260510153231 | 85 | 123 | 1.0 | 2.0 | 0.00 | 0.00 | 0.00 | 23 | 1016.8 |
| 20260510152728 | 84 | 131 | 0.0 | 1.0 | 0.00 | 0.00 | 0.00 | 24 | 1016.8 |
| 20260510152224 | 84 | 132 | 1.0 | 2.0 | 0.00 | 0.00 | 0.00 | 24 | 1016.8 |
| 20260510151721 | 83 | 137 | 1.0 | 2.0 | 0.00 | 0.00 | 0.00 | 24 | 1016.8 |
| 20260510151220 | 82 | 145 | 1.0 | 1.0 | 0.00 | 0.00 | 0.00 | 24 | 1016.8 |
| 20260510150715 | 82 | 134 | 1.0 | 1.0 | 0.00 | 0.00 | 0.00 | 24 | 1016.8 |
| 20260510150210 | 82 | 135 | 1.0 | 1.0 | 0.00 | 0.00 | 0.00 | 25 | 1016.8 |
| 20260510145707 | 80 | 140 | 0.0 | 1.0 | 0.00 | 0.00 | 0.00 | 25 | 1016.5 |
| 20260510145203 | 79 | 140 | 3.0 | 3.0 | 0.00 | 0.00 | 0.00 | 26 | 1016.5 |
| 20260510144700 | 79 | 137 | 1.0 | 1.0 | 0.00 | 0.00 | 0.00 | 27 | 1016.8 |
| 20260510144156 | 78 | 149 | 2.0 | 2.0 | 0.00 | 0.00 | 0.00 | 27 | 1016.5 |
| 20260510143651 | 77 | 139 | 0.0 | 0.0 | 0.00 | 0.00 | 0.00 | 28 | 1016.5 |
| 20260510143148 | 77 | 144 | 0.0 | 0.0 | 0.00 | 0.00 | 0.00 | 28 | 1016.8 |
| 20260510142644 | 77 | 144 | 0.0 | 0.0 | 0.00 | 0.00 | 0.00 | 31 | 1016.5 |
| 20260510142141 | 75 | 136 | 0.0 | 0.0 | 0.00 | 0.00 | 0.00 | 31 | 1016.5 |
| 20260510141638 | 74 | 120 | 1.0 | 1.0 | 0.00 | 0.00 | 0.00 | 33 | 1016.5 |
| 20260510141137 | 75 | 126 | 1.0 | 2.0 | 0.00 | 0.00 | 0.00 | 32 | 1016.8 |
| 20260510140632 | 75 | 130 | 1.0 | 1.0 | 0.00 | 0.00 | 0.00 | 30 | 1016.5 |
| 20260510140132 | 75 | 132 | 1.0 | 1.0 | 0.00 | 0.00 | 0.00 | 32 | 1016.5 |
| 20260510135627 | 75 | 135 | 0.0 | 0.0 | 0.00 | 0.00 | 0.00 | 30 | 1016.5 |
| 20260510135124 | 74 | 133 | 0.0 | 0.0 | 0.00 | 0.00 | 0.00 | 30 | 1016.5 |
| 20260510134621 | 74 | 131 | 0.0 | 0.0 | 0.00 | 0.00 | 0.00 | 31 | 1016.5 |
| 20260510134118 | 72 | 131 | 0.0 | 0.0 | 0.00 | 0.00 | 0.00 | 32 | 1016.5 |
| 20260510133614 | 71 | 131 | 0.0 | 0.0 | 0.00 | 0.00 | 0.00 | 34 | 1016.1 |
| 20260510133109 | 71 | 130 | 0.0 | 0.0 | 0.00 | 0.00 | 0.00 | 34 | 1016.1 |
| 20260510132606 | 71 | 138 | 0.0 | 0.0 | 0.00 | 0.00 | 0.00 | 35 | 1016.1 |
| 20260510132103 | 71 | 143 | 0.0 | 1.0 | 0.00 | 0.00 | 0.00 | 31 | 1016.1 |
| 20260510131601 | 70 | 143 | 0.0 | 1.0 | 0.00 | 0.00 | 0.00 | 31 | 1015.8 |
| 20260510131058 | 70 | 142 | 0.0 | 1.0 | 0.00 | 0.00 | 0.00 | 31 | 1016.1 |
| 20260510130554 | 69 | 144 | 1.0 | 1.0 | 0.00 | 0.00 | 0.00 | 31 | 1015.8 |
| 20260510130052 | 69 | 140 | 2.0 | 2.0 | 0.00 | 0.00 | 0.00 | 31 | 1016.1 |
| 20260510125548 | 68 | 149 | 2.0 | 2.0 | 0.00 | 0.00 | 0.00 | 32 | 1015.8 |
| 20260510125044 | 68 | 143 | 1.0 | 2.0 | 0.00 | 0.00 | 0.00 | 33 | 1015.8 |
| 20260510124541 | 68 | 133 | 0.0 | 0.0 | 0.00 | 0.00 | 0.00 | 33 | 1015.8 |
| 20260510124038 | 67 | 134 | 1.0 | 1.0 | 0.00 | 0.00 | 0.00 | 32 | 1015.8 |
| 20260510123533 | 67 | 135 | 0.0 | 0.0 | 0.00 | 0.00 | 0.00 | 33 | 1015.8 |
| 20260510123030 | 68 | 131 | 1.0 | 2.0 | 0.00 | 0.00 | 0.00 | 33 | 1015.8 |
| 20260510122525 | 68 | 132 | 1.0 | 1.0 | 0.00 | 0.00 | 0.00 | 32 | 1015.8 |
| 20260510122022 | 68 | 133 | 2.0 | 2.0 | 0.00 | 0.00 | 0.00 | 32 | 1015.4 |
| 20260510121519 | 69 | 135 | 0.0 | 0.0 | 0.00 | 0.00 | 0.00 | 32 | 1015.4 |
| 20260510121016 | 68 | 138 | 0.0 | 0.0 | 0.00 | 0.00 | 0.00 | 32 | 1015.4 |
| 20260510120514 | 67 | 135 | 1.0 | 2.0 | 0.00 | 0.00 | 0.00 | 33 | 1015.0 |
| 20260510120010 | 68 | 141 | 0.0 | 0.0 | 0.00 | 0.00 | 0.00 | 34 | 1015.4 |
| 20260510115506 | 68 | 142 | 0.0 | 0.0 | 0.00 | 0.00 | 0.00 | 33 | 1015.4 |
| 20260510115003 | 68 | 142 | 1.0 | 1.0 | 0.00 | 0.00 | 0.00 | 33 | 1015.4 |
| 20260510114459 | 68 | 141 | 0.0 | 0.0 | 0.00 | 0.00 | 0.00 | 33 | 1015.0 |
| 20260510113955 | 68 | 141 | 0.0 | 0.0 | 0.00 | 0.00 | 0.00 | 34 | 1015.4 |
| 20260510113450 | 68 | 145 | 0.0 | 0.0 | 0.00 | 0.00 | 0.00 | 34 | 1015.4 |
| 20260510112948 | 68 | 145 | 0.0 | 0.0 | 0.00 | 0.00 | 0.00 | 34 | 1015.0 |
| 20260510112445 | 68 | 145 | 0.0 | 0.0 | 0.00 | 0.00 | 0.00 | 34 | 1015.0 |
| 20260510111941 | 68 | 148 | 0.0 | 0.0 | 0.00 | 0.00 | 0.00 | 34 | 1015.0 |
| 20260510111437 | 68 | 148 | 1.0 | 1.0 | 0.00 | 0.00 | 0.00 | 35 | 1015.0 |
| 20260510110933 | 67 | 137 | 0.0 | 0.0 | 0.00 | 0.00 | 0.00 | 37 | 1015.0 |
| 20260510110430 | 67 | 142 | 0.0 | 0.0 | 0.00 | 0.00 | 0.00 | 37 | 1015.0 |
| 20260510105926 | 67 | 143 | 0.0 | 0.0 | 0.00 | 0.00 | 0.00 | 37 | 1015.0 |
| 20260510105421 | 67 | 131 | 0.0 | 0.0 | 0.00 | 0.00 | 0.00 | 36 | 1015.0 |
| 20260510104916 | 67 | 129 | 0.0 | 0.0 | 0.00 | 0.00 | 0.00 | 37 | 1015.0 |
| 20260510104413 | 67 | 129 | 0.0 | 0.0 | 0.00 | 0.00 | 0.00 | 37 | 1014.7 |
| 20260510103909 | 67 | 129 | 0.0 | 0.0 | 0.00 | 0.00 | 0.00 | 37 | 1014.7 |
| 20260510103402 | 68 | 133 | 0.0 | 0.0 | 0.00 | 0.00 | 0.00 | 36 | 1015.0 |
| 20260510102857 | 68 | 133 | 0.0 | 0.0 | 0.00 | 0.00 | 0.00 | 35 | 1015.0 |
| 20260510102353 | 69 | 133 | 0.0 | 0.0 | 0.00 | 0.00 | 0.00 | 34 | 1014.7 |
| 20260510101850 | 69 | 141 | 0.0 | 0.0 | 0.00 | 0.00 | 0.00 | 32 | 1014.7 |
| 20260510101348 | 71 | 144 | 0.0 | 0.0 | 0.00 | 0.00 | 0.00 | 31 | 1014.7 |
| 20260510100845 | 71 | 144 | 0.0 | 0.0 | 0.00 | 0.00 | 0.00 | 31 | 1014.7 |
| 20260510100342 | 71 | 144 | 0.0 | 0.0 | 0.00 | 0.00 | 0.00 | 31 | 1014.7 |
| 20260510095838 | 71 | 132 | 0.0 | 0.0 | 0.00 | 0.00 | 0.00 | 32 | 1015.0 |
| 20260510095333 | 71 | 155 | 1.0 | 2.0 | 0.00 | 0.00 | 0.00 | 30 | 1015.0 |
| 20260510094833 | 69 | 139 | 0.0 | 0.0 | 0.00 | 0.00 | 0.00 | 33 | 1014.7 |
| 20260510094328 | 69 | 139 | 0.0 | 0.0 | 0.00 | 0.00 | 0.00 | 33 | 1014.7 |
| 20260510093825 | 69 | 139 | 0.0 | 0.0 | 0.00 | 0.00 | 0.00 | 31 | 1014.7 |
| 20260510093321 | 70 | 140 | 0.0 | 0.0 | 0.00 | 0.00 | 0.00 | 30 | 1015.0 |
| 20260510092817 | 71 | 139 | 0.0 | 0.0 | 0.00 | 0.00 | 0.00 | 30 | 1014.7 |
| 20260510092313 | 71 | 139 | 0.0 | 0.0 | 0.00 | 0.00 | 0.00 | 29 | 1014.7 |
| 20260510091809 | 72 | 139 | 0.0 | 0.0 | 0.00 | 0.00 | 0.00 | 29 | 1014.7 |
| 20260510091306 | 73 | 139 | 0.0 | 0.0 | 0.00 | 0.00 | 0.00 | 28 | 1014.7 |
| 20260510090803 | 73 | 139 | 0.0 | 0.0 | 0.00 | 0.00 | 0.00 | 28 | 1015.0 |
| 20260510090300 | 73 | 137 | 0.0 | 0.0 | 0.00 | 0.00 | 0.00 | 27 | 1014.7 |
| 20260510085756 | 74 | 137 | 0.0 | 0.0 | 0.00 | 0.00 | 0.00 | 27 | 1014.7 |
| 20260510085254 | 74 | 132 | 0.0 | 0.0 | 0.00 | 0.00 | 0.00 | 27 | 1014.7 |
| 20260510084751 | 75 | 137 | 1.0 | 1.0 | 0.00 | 0.00 | 0.00 | 27 | 1014.7 |
| 20260510084248 | 75 | 139 | 1.0 | 1.0 | 0.00 | 0.00 | 0.00 | 26 | 1014.7 |
| 20260510083745 | 75 | 139 | 1.0 | 1.0 | 0.00 | 0.00 | 0.00 | 26 | 1014.7 |
| 20260510083242 | 75 | 153 | 3.0 | 3.0 | 0.00 | 0.00 | 0.00 | 26 | 1014.7 |
| 20260510082738 | 75 | 136 | 3.0 | 3.0 | 0.00 | 0.00 | 0.00 | 27 | 1014.7 |
| 20260510082235 | 75 | 143 | 0.0 | 0.0 | 0.00 | 0.00 | 0.00 | 27 | 1014.7 |
| 20260510081733 | 76 | 153 | 0.0 | 2.0 | 0.00 | 0.00 | 0.00 | 27 | 1014.7 |
| 20260510081230 | 76 | 141 | 0.0 | 0.0 | 0.00 | 0.00 | 0.00 | 26 | 1014.7 |
| 20260510080725 | 76 | 140 | 1.0 | 1.0 | 0.00 | 0.00 | 0.00 | 26 | 1014.7 |
| 20260510080221 | 77 | 137 | 0.0 | 0.0 | 0.00 | 0.00 | 0.00 | 27 | 1014.7 |
| 20260510075718 | 77 | 137 | 1.0 | 1.0 | 0.00 | 0.00 | 0.00 | 26 | 1014.7 |
| 20260510075216 | 77 | 137 | 0.0 | 0.0 | 0.00 | 0.00 | 0.00 | 25 | 1014.7 |
| 20260510074713 | 79 | 130 | 0.0 | 1.0 | 0.00 | 0.00 | 0.00 | 25 | 1014.7 |
| 20260510074209 | 79 | 125 | 1.0 | 2.0 | 0.00 | 0.00 | 0.00 | 24 | 1014.7 |
| 20260510073706 | 79 | 138 | 2.0 | 2.0 | 0.00 | 0.00 | 0.00 | 23 | 1015.0 |
| 20260510073201 | 79 | 139 | 1.0 | 1.0 | 0.00 | 0.00 | 0.00 | 24 | 1014.7 |
| 20260510072657 | 77 | 146 | 2.0 | 2.0 | 0.00 | 0.00 | 0.00 | 23 | 1014.7 |
| 20260510072154 | 77 | 139 | 0.0 | 0.0 | 0.00 | 0.00 | 0.00 | 26 | 1014.7 |
| 20260510071650 | 78 | 138 | 0.0 | 0.0 | 0.00 | 0.00 | 0.00 | 25 | 1014.7 |
| 20260510071147 | 79 | 138 | 0.0 | 0.0 | 0.00 | 0.00 | 0.00 | 24 | 1014.3 |
| 20260510070645 | 80 | 143 | 0.0 | 0.0 | 0.00 | 0.00 | 0.00 | 23 | 1014.7 |
| 20260510070143 | 81 | 146 | 0.0 | 1.0 | 0.00 | 0.00 | 0.00 | 22 | 1014.7 |
| 20260510065638 | 82 | 146 | 0.0 | 1.0 | 0.00 | 0.00 | 0.00 | 22 | 1014.7 |
| 20260510065134 | 83 | 147 | 0.0 | 0.0 | 0.00 | 0.00 | 0.00 | 21 | 1014.7 |
| 20260510064630 | 83 | 148 | 2.0 | 2.0 | 0.00 | 0.00 | 0.00 | 21 | 1014.7 |
| 20260510064127 | 84 | 165 | 2.0 | 2.0 | 0.00 | 0.00 | 0.00 | 20 | 1014.7 |
| 20260510063624 | 84 | 155 | 2.0 | 2.0 | 0.00 | 0.00 | 0.00 | 20 | 1014.7 |
| 20260510063121 | 84 | 200 | 3.0 | 3.0 | 0.00 | 0.00 | 0.00 | 20 | 1014.3 |
| 20260510062617 | 85 | 166 | 3.0 | 3.0 | 0.00 | 0.00 | 0.00 | 20 | 1014.3 |
| 20260510062113 | 85 | 217 | 3.0 | 5.0 | 0.00 | 0.00 | 0.00 | 20 | 1014.3 |
| 20260510061609 | 85 | 204 | 3.0 | 5.0 | 0.00 | 0.00 | 0.00 | 19 | 1014.7 |
| 20260510061107 | 81 | 293 | 7.0 | 9.0 | 0.00 | 0.00 | 0.00 | 21 | 1014.3 |
| 20260510060602 | 82 | 138 | 0.0 | 0.0 | 0.00 | 0.00 | 0.00 | 23 | 1014.3 |
| 20260510060058 | 82 | 142 | 1.0 | 1.0 | 0.00 | 0.00 | 0.00 | 22 | 1014.3 |
| 20260510055554 | 82 | 153 | 1.0 | 2.0 | 0.00 | 0.00 | 0.00 | 22 | 1014.3 |
| 20260510055053 | 82 | 151 | 1.0 | 2.0 | 0.00 | 0.00 | 0.00 | 22 | 1014.3 |
| 20260510054548 | 83 | 169 | 1.0 | 2.0 | 0.00 | 0.00 | 0.00 | 22 | 1013.9 |
| 20260510054044 | 84 | 157 | 2.0 | 2.0 | 0.00 | 0.00 | 0.00 | 21 | 1013.9 |
| 20260510053544 | 84 | 170 | 3.0 | 3.0 | 0.00 | 0.00 | 0.00 | 21 | 1013.9 |
| 20260510053041 | 84 | 183 | 3.0 | 3.0 | 0.00 | 0.00 | 0.00 | 20 | 1013.6 |
| 20260510052537 | 84 | 157 | 2.0 | 2.0 | 0.00 | 0.00 | 0.00 | 21 | 1013.6 |
| 20260510052033 | 84 | 165 | 3.0 | 3.0 | 0.00 | 0.00 | 0.00 | 21 | 1013.6 |
| 20260510051529 | 83 | 136 | 0.0 | 0.0 | 0.00 | 0.00 | 0.00 | 21 | 1013.6 |
| 20260510051026 | 83 | 128 | 0.0 | 0.0 | 0.00 | 0.00 | 0.00 | 21 | 1013.2 |
| 20260510050523 | 83 | 121 | 2.0 | 2.0 | 0.00 | 0.00 | 0.00 | 21 | 1013.2 |
| 20260510050020 | 83 | 129 | 1.0 | 2.0 | 0.00 | 0.00 | 0.00 | 21 | 1013.6 |
| 20260510045517 | 83 | 124 | 2.0 | 2.0 | 0.00 | 0.00 | 0.00 | 21 | 1013.2 |
| 20260510045013 | 84 | 125 | 1.0 | 2.0 | 0.00 | 0.00 | 0.00 | 21 | 1013.2 |
| 20260510044510 | 84 | 131 | 1.0 | 1.0 | 0.00 | 0.00 | 0.00 | 21 | 1013.2 |
| 20260510044008 | 85 | 148 | 1.0 | 2.0 | 0.00 | 0.00 | 0.00 | 20 | 1013.2 |
| 20260510043502 | 85 | 143 | 3.0 | 3.0 | 0.00 | 0.00 | 0.00 | 20 | 1013.2 |
| 20260510043002 | 85 | 135 | 3.0 | 3.0 | 0.00 | 0.00 | 0.00 | 20 | 1013.2 |
| 20260510042457 | 85 | 135 | 0.0 | 0.0 | 0.00 | 0.00 | 0.00 | 20 | 1012.9 |
| 20260510041952 | 85 | 144 | 2.0 | 2.0 | 0.00 | 0.00 | 0.00 | 20 | 1012.9 |
| 20260510041450 | 85 | 124 | 2.0 | 2.0 | 0.00 | 0.00 | 0.00 | 21 | 1012.9 |
| 20260510040948 | 85 | 132 | 0.0 | 0.0 | 0.00 | 0.00 | 0.00 | 20 | 1012.9 |
| 20260510040444 | 85 | 126 | 2.0 | 3.0 | 0.00 | 0.00 | 0.00 | 20 | 1012.9 |
| 20260510035940 | 85 | 131 | 1.0 | 1.0 | 0.00 | 0.00 | 0.00 | 21 | 1012.4 |
| 20260510035436 | 86 | 136 | 1.0 | 1.0 | 0.00 | 0.00 | 0.00 | 20 | 1012.4 |
| 20260510034936 | 87 | 112 | 2.0 | 2.0 | 0.00 | 0.00 | 0.00 | 20 | 1012.4 |
| 20260510034435 | 87 | 113 | 3.0 | 3.0 | 0.00 | 0.00 | 0.00 | 20 | 1012.4 |
| 20260510033931 | 86 | 161 | 2.0 | 2.0 | 0.00 | 0.00 | 0.00 | 20 | 1012.1 |
| 20260510033427 | 87 | 131 | 0.0 | 0.0 | 0.00 | 0.00 | 0.00 | 20 | 1012.4 |
| 20260510032924 | 87 | 128 | 0.0 | 0.0 | 0.00 | 0.00 | 0.00 | 19 | 1012.1 |
| 20260510032421 | 87 | 134 | 0.0 | 0.0 | 0.00 | 0.00 | 0.00 | 19 | 1012.1 |
| 20260510031916 | 87 | 135 | 0.0 | 0.0 | 0.00 | 0.00 | 0.00 | 21 | 1012.1 |
| 20260510031413 | 87 | 134 | 0.0 | 0.0 | 0.00 | 0.00 | 0.00 | 19 | 1012.1 |
| 20260510030913 | 87 | 133 | 0.0 | 0.0 | 0.00 | 0.00 | 0.00 | 19 | 1011.8 |
| 20260510030409 | 87 | 133 | 0.0 | 0.0 | 0.00 | 0.00 | 0.00 | 20 | 1012.1 |
| 20260510025907 | 87 | 131 | 0.0 | 0.0 | 0.00 | 0.00 | 0.00 | 22 | 1011.8 |
| 20260510025404 | 87 | 136 | 0.0 | 0.0 | 0.00 | 0.00 | 0.00 | 20 | 1011.8 |
| 20260510024901 | 88 | 133 | 0.0 | 0.0 | 0.00 | 0.00 | 0.00 | 20 | 1011.8 |
| 20260510024358 | 89 | 130 | 0.0 | 1.0 | 0.00 | 0.00 | 0.00 | 18 | 1011.3 |
| 20260510023853 | 89 | 131 | 0.0 | 0.0 | 0.00 | 0.00 | 0.00 | 19 | 1011.8 |
| 20260510023350 | 89 | 133 | 0.0 | 0.0 | 0.00 | 0.00 | 0.00 | 18 | 1011.8 |
| 20260510022848 | 89 | 131 | 0.0 | 1.0 | 0.00 | 0.00 | 0.00 | 17 | 1011.8 |
| 20260510022347 | 90 | 131 | 0.0 | 0.0 | 0.00 | 0.00 | 0.00 | 17 | 1011.8 |
| 20260510021846 | 90 | 131 | 0.0 | 0.0 | 0.00 | 0.00 | 0.00 | 17 | 1011.3 |
| 20260510021344 | 91 | 131 | 0.0 | 1.0 | 0.00 | 0.00 | 0.00 | 17 | 1011.3 |
| 20260510020840 | 92 | 127 | 1.0 | 1.0 | 0.00 | 0.00 | 0.00 | 17 | 1011.3 |
| 20260510020340 | 93 | 136 | 1.0 | 2.0 | 0.00 | 0.00 | 0.00 | 16 | 1011.3 |
| 20260510015836 | 93 | 129 | 1.0 | 2.0 | 0.00 | 0.00 | 0.00 | 16 | 1011.3 |
| 20260510015332 | 93 | 64 | 0.0 | 1.0 | 0.00 | 0.00 | 0.00 | 16 | 1011.3 |
| 20260510014827 | 94 | 51 | 3.0 | 5.0 | 0.00 | 0.00 | 0.00 | 16 | 1011.3 |
| 20260510014325 | 94 | 62 | 2.0 | 2.0 | 0.00 | 0.00 | 0.00 | 16 | 1011.3 |
| 20260510013821 | 95 | 355 | 2.0 | 2.0 | 0.00 | 0.00 | 0.00 | 16 | 1011.0 |
| 20260510013317 | 95 | 297 | 3.0 | 3.0 | 0.00 | 0.00 | 0.00 | 16 | 1011.0 |
| 20260510012812 | 95 | 41 | 2.0 | 5.0 | 0.00 | 0.00 | 0.00 | 15 | 1011.0 |
| 20260510012307 | 96 | 54 | 2.0 | 3.0 | 0.00 | 0.00 | 0.00 | 15 | 1011.0 |
| 20260510011807 | 96 | 349 | 0.0 | 0.0 | 0.00 | 0.00 | 0.00 | 16 | 1011.0 |
| 20260510011302 | 96 | 310 | 1.0 | 2.0 | 0.00 | 0.00 | 0.00 | 15 | 1011.0 |
| 20260510010759 | 96 | 60 | 2.0 | 2.0 | 0.00 | 0.00 | 0.00 | 15 | 1011.3 |
| 20260510010256 | 96 | 23 | 4.0 | 7.0 | 0.00 | 0.00 | 0.00 | 15 | 1011.0 |
| 20260510005753 | 96 | 57 | 3.0 | 6.0 | 0.00 | 0.00 | 0.00 | 15 | 1011.0 |
| 20260510005249 | 96 | 347 | 4.0 | 6.0 | 0.00 | 0.00 | 0.00 | 15 | 1011.0 |
| 20260510004747 | 97 | 80 | 0.0 | 1.0 | 0.00 | 0.00 | 0.00 | 15 | 1011.0 |
| 20260510004244 | 96 | 60 | 0.0 | 0.0 | 0.00 | 0.00 | 0.00 | 15 | 1011.3 |
| 20260510003742 | 96 | 3 | 4.0 | 7.0 | 0.00 | 0.00 | 0.00 | 15 | 1011.0 |
| 20260510003238 | 97 | 349 | 12.0 | 16.0 | 0.00 | 0.00 | 0.00 | 15 | 1011.0 |
| 20260510002736 | 97 | 316 | 4.0 | 6.0 | 0.00 | 0.00 | 0.00 | 15 | 1011.3 |
| 20260510002234 | 97 | 43 | 3.0 | 3.0 | 0.00 | 0.00 | 0.00 | 15 | 1011.0 |
| 20260510001731 | 97 | 73 | 3.0 | 3.0 | 0.00 | 0.00 | 0.00 | 15 | 1011.3 |
| 20260510001230 | 98 | 77 | 0.0 | 1.0 | 0.00 | 0.00 | 0.00 | 15 | 1011.3 |
| 20260510000725 | 97 | 92 | 1.0 | 2.0 | 0.00 | 0.00 | 0.00 | 15 | 1011.3 |
| 20260510000223 | 97 | 49 | 3.0 | 5.0 | 0.00 | 0.00 | 0.00 | 15 | 1011.3 |
| 20260509235719 | 97 | 332 | 3.0 | 3.0 | 0.00 | 0.00 | 0.00 | 15 | 1011.3 |
| 20260509235216 | 98 | 293 | 7.0 | 9.0 | 0.00 | 0.00 | 0.00 | 15 | 1011.3 |
| 20260509234707 | 98 | 47 | 4.0 | 6.0 | 0.00 | 0.00 | 0.00 | 15 | 1011.3 |
| 20260509234203 | 97 | 110 | 3.0 | 3.0 | 0.00 | 0.00 | 0.00 | 15 | 1011.3 |
| 20260509233702 | 97 | 201 | 0.0 | 0.0 | 0.00 | 0.00 | 0.00 | 15 | 1011.3 |
| 20260509233159 | 97 | 315 | 7.0 | 9.0 | 0.00 | 0.00 | 0.00 | 15 | 1011.3 |
| 20260509232655 | 98 | 325 | 2.0 | 3.0 | 0.00 | 0.00 | 0.00 | 15 | 1011.8 |
| 20260509232152 | 98 | 321 | 4.0 | 6.0 | 0.00 | 0.00 | 0.00 | 15 | 1011.8 |
| 20260509231649 | 97 | 67 | 2.0 | 3.0 | 0.00 | 0.00 | 0.00 | 15 | 1011.3 |
| 20260509231146 | 97 | 291 | 8.0 | 10.0 | 0.00 | 0.00 | 0.00 | 15 | 1011.8 |
| 20260509230643 | 98 | 22 | 3.0 | 7.0 | 0.00 | 0.00 | 0.00 | 16 | 1011.8 |
| 20260509230140 | 97 | 51 | 4.0 | 7.0 | 0.00 | 0.00 | 0.00 | 15 | 1011.8 |
| 20260509225636 | 98 | 331 | 10.0 | 16.0 | 0.00 | 0.00 | 0.00 | 15 | 1011.8 |
| 20260509225132 | 98 | 54 | 4.0 | 6.0 | 0.00 | 0.00 | 0.00 | 15 | 1011.8 |
| 20260509224626 | 98 | 26 | 0.0 | 1.0 | 0.00 | 0.00 | 0.00 | 16 | 1011.8 |
| 20260509224118 | 99 | 330 | 4.0 | 7.0 | 0.00 | 0.00 | 0.00 | 15 | 1011.8 |
| 20260509223615 | 99 | 77 | 2.0 | 3.0 | 0.00 | 0.00 | 0.00 | 16 | 1012.1 |
| 20260509223113 | 98 | 270 | 3.0 | 3.0 | 0.00 | 0.00 | 0.00 | 15 | 1012.1 |
| 20260509222608 | 97 | 70 | 2.0 | 3.0 | 0.00 | 0.00 | 0.00 | 16 | 1012.4 |
| 20260509222105 | 98 | 359 | 7.0 | 10.0 | 0.00 | 0.00 | 0.00 | 16 | 1012.4 |
| 20260509221600 | 100 | 58 | 4.0 | 5.0 | 0.00 | 0.00 | 0.00 | 15 | 1012.4 |
| 20260509221057 | 98 | 77 | 1.0 | 2.0 | 0.00 | 0.00 | 0.00 | 15 | 1012.4 |
| 20260509220552 | 98 | 75 | 3.0 | 6.0 | 0.00 | 0.00 | 0.00 | 15 | 1012.9 |
| 20260509220049 | 98 | 285 | 6.0 | 8.0 | 0.00 | 0.00 | 0.00 | 16 | 1012.4 |
| 20260509215544 | 98 | 56 | 4.0 | 6.0 | 0.00 | 0.00 | 0.00 | 15 | 1012.9 |
| 20260509215042 | 98 | 174 | 3.0 | 3.0 | 0.00 | 0.00 | 0.00 | 15 | 1012.9 |
| 20260509214539 | 98 | 65 | 2.0 | 2.0 | 0.00 | 0.00 | 0.00 | 15 | 1012.9 |